Flag for U.S.A. Weather past 2 weeks in Torrance, California, U.S.A.

Now
62 °F

Clear.


Feels Like: 62 °F
Forecast: 64 / 76 °F
Wind: No wind

Location: Hawthorne Municipal Airport

Current Time: Oct 23, 2014 at 6:48:09 AM

Latest Report: Oct 23, 2014 at 5:53 AM


Visibility: 10 mi

Pressure: 29.94 "Hg

Humidity: 86%

Dew point: 58 °F

Location of TorranceLocation

Historic Weather in Torrance — Graph

°F

Torrance temperature yesterday

Maximum temperature yesterday: 79 °F (at 11:53 AM)
Minimum temperature yesterday: 63 °F (at 5:53 AM)
Average temperature yesterday: 70 °F

Past Weeks' High & Low Weather Summary

 TemperatureHumidityPressure
High79 °F (Oct 8, 10:53 AM)93% (Oct 23, 3:53 AM)30.02 "Hg (Oct 23, 3:53 AM)
Low62 °F (Oct 23, 3:53 AM)43% (Oct 15, 10:53 AM)29.80 "Hg (Oct 8, 4:53 PM)
Average70 °F73%29.92 "Hg
* Reported Oct 8 5:04 AM — Oct 23 5:53 AM, Torrance, Weather by CustomWeather, © 2014

Note: Actual official high and low records may vary slightly from our data, if they occured in-between our weather recording intervals... More about our weather records

Advertising

Torrance weather history for previous 24 hours

 ConditionsComfort  
Time TempWeatherWind HumidityBarometerVisibility
5:53 AM
Oct 23
62 °FClear.No wind86%29.94 "Hg10 mi
4:53 AM63 °FClear.No wind84%29.93 "Hg10 mi
3:53 AM62 °FClear.No wind93%29.93 "Hg10 mi
2:53 AM63 °FClear.No wind90%29.94 "Hg10 mi
1:53 AM64 °FClear.No wind90%29.95 "Hg10 mi
12:53 AM66 °FClear.No wind84%29.96 "Hg10 mi
11:53 PM
Oct 22
68 °FClear.No wind82%29.96 "Hg10 mi
10:53 PM69 °FClear.No wind84%29.96 "Hg10 mi
9:53 PM69 °FClear.No wind81%29.95 "Hg10 mi
8:53 PM70 °FClear.No wind73%29.94 "Hg10 mi
7:53 PM71 °FClear.5 mph78%29.93 "Hg10 mi
6:53 PM71 °FSunny.6 mph76%29.91 "Hg10 mi
5:53 PM73 °FSunny.7 mph69%29.89 "Hg10 mi
4:53 PM76 °FSunny.10 mph62%29.88 "Hg10 mi
3:53 PM77 °FSunny.10 mph58%29.89 "Hg10 mi
2:57 PM78 °FSunny.10 mph56%29.90 "Hg2 mi
1:53 PM77 °FSunny.10 mph58%29.90 "Hg10 mi
12:53 PM79 °FSunny.13 mph52%29.91 "Hg10 mi
11:53 AM79 °FSunny.No wind47%29.93 "Hg10 mi
10:53 AM75 °FSunny.No wind54%29.94 "Hg9 mi
9:53 AM71 °FSunny.No wind66%29.95 "Hg7 mi
8:53 AM68 °FSunny.5 mph73%29.95 "Hg7 mi
7:53 AM65 °FClear.3 mph76%29.93 "Hg9 mi
6:53 AM63 °FClear.No wind84%29.90 "Hg10 mi
Weather by CustomWeather, © 2014

See weather overviewHow to use our weather pages